Private Wetterstation Wechselburg
Wetterdaten: Montag, 17.02.2014
Datum Zeit Temp. +2m Bodentemp. Temp.+5cm Temp. Wind Windchill X Diff Temp. Feuchte +2m Feuchte +5cm Sonnenschein Luftdruck Regen Wind Richtung Richtung Sonnenschein UV Taupunkt Windchill Windben
17.02.2014 00:00 4,3 C 14,3 C 4,1 C 4,2 C 4,1 C 0,0 C 85 % 90 % 0 % 1015,8 hPa 0,0 l/m 2,1 km/h (1 Bft) S 180 0 min 0,0 UV-I 2,0 C 4,1 C 3,4 km/h (1 Bft)
17.02.2014 00:05 4,3 C 14,3 C 4,1 C 4,3 C 4,2 C 0,0 C 85 % 91 % 0 % 1015,8 hPa 0,0 l/m 2,3 km/h (1 Bft) S-SW 202 0 min 0,0 UV-I 2,0 C 4,2 C 3,7 km/h (1 Bft)
17.02.2014 00:10 4,3 C 14,3 C 4,0 C 4,2 C 4,0 C 0,0 C 85 % 90 % 0 % 1015,8 hPa 0,0 l/m 1,1 km/h (1 Bft) O-NO 67 0 min 0,0 UV-I 2,0 C 4,0 C 2,1 km/h (1 Bft)
17.02.2014 00:15 4,3 C 14,3 C 3,9 C 4,1 C 3,8 C 0,0 C 85 % 90 % 0 % 1015,8 hPa 0,0 l/m 0,5 km/h (0 Bft) S-SW 202 0 min 0,0 UV-I 2,0 C 3,8 C 4,3 km/h (1 Bft)
17.02.2014 00:20 4,0 C 14,4 C 3,7 C 3,8 C 3,5 C 0,0 C 85 % 91 % 0 % 1015,8 hPa 0,0 l/m 1,6 km/h (1 Bft) W-SW 247 0 min 0,0 UV-I 1,7 C 3,5 C 6,0 km/h (2 Bft)
17.02.2014 00:25 4,0 C 14,3 C 3,6 C 3,8 C 3,3 C 0,0 C 85 % 91 % 0 % 1015,8 hPa 0,0 l/m 2,1 km/h (1 Bft) N-NW 337 0 min 0,0 UV-I 1,7 C 3,3 C 0,0 km/h (0 Bft)
17.02.2014 00:30 3,9 C 14,3 C 3,5 C 3,6 C 3,1 C 0,0 C 85 % 91 % 0 % 1015,7 hPa 0,0 l/m 1,6 km/h (1 Bft) SO 135 0 min 0,0 UV-I 1,6 C 3,1 C 8,0 km/h (2 Bft)
17.02.2014 00:35 3,9 C 14,3 C 3,5 C 3,6 C 2,9 C 0,0 C 85 % 91 % 0 % 1015,7 hPa 0,0 l/m 1,3 km/h (1 Bft) NO 45 0 min 0,0 UV-I 1,6 C 2,9 C 0,0 km/h (0 Bft)
17.02.2014 00:41 3,8 C 14,3 C 3,4 C 3,5 C 2,8 C 0,0 C 85 % 91 % 0 % 1015,7 hPa 0,0 l/m 0,6 km/h (0 Bft) N 0 0 min 0,0 UV-I 1,5 C 2,8 C 0,0 km/h (0 Bft)
17.02.2014 01:00 3,6 C 14,3 C 3,2 C 3,2 C 2,5 C 0,0 C 85 % 91 % 0 % 1016,1 hPa 0,0 l/m 1,3 km/h (1 Bft) S 180 0 min 0,0 UV-I 1,3 C 2,5 C 3,4 km/h (1 Bft)
17.02.2014 01:01 3,6 C 14,3 C 3,2 C 3,2 C 2,5 C 0,0 C 85 % 91 % 0 % 1016,1 hPa 0,0 l/m 1,3 km/h (1 Bft) S 180 0 min 0,0 UV-I 1,3 C 2,5 C 3,4 km/h (1 Bft)
17.02.2014 01:05 3,5 C 14,3 C 3,2 C 3,2 C 2,5 C 0,0 C 85 % 91 % 0 % 1016,1 hPa 0,0 l/m 1,9 km/h (1 Bft) S 180 0 min 0,0 UV-I 1,2 C 2,5 C 3,4 km/h (1 Bft)
17.02.2014 01:10 3,5 C 14,3 C 3,1 C 3,2 C 2,5 C 0,0 C 85 % 91 % 0 % 1015,6 hPa 0,0 l/m 2,1 km/h (1 Bft) SW 225 0 min 0,0 UV-I 1,2 C 2,5 C 0,0 km/h (0 Bft)
17.02.2014 01:15 3,5 C 14,3 C 3,0 C 3,1 C 2,3 C 0,0 C 85 % 91 % 0 % 1015,6 hPa 0,0 l/m 1,1 km/h (1 Bft) S 180 0 min 0,0 UV-I 1,2 C 2,3 C 3,5 km/h (1 Bft)
17.02.2014 01:20 3,2 C 14,3 C 2,8 C 2,9 C 2,2 C 0,0 C 85 % 91 % 0 % 1015,6 hPa 0,0 l/m 0,5 km/h (0 Bft) W-SW 247 0 min 0,0 UV-I 0,9 C 2,2 C 0,0 km/h (0 Bft)
17.02.2014 01:25 3,2 C 14,3 C 2,8 C 2,8 C 2,1 C 0,0 C 85 % 91 % 0 % 1015,6 hPa 0,0 l/m 0,6 km/h (0 Bft) O-SO 112 0 min 0,0 UV-I 0,9 C 2,1 C 2,7 km/h (1 Bft)
17.02.2014 01:30 3,1 C 14,3 C 2,8 C 2,7 C 2,0 C 0,0 C 85 % 91 % 0 % 1015,8 hPa 0,0 l/m 0,8 km/h (0 Bft) S 180 0 min 0,0 UV-I 0,8 C 2,0 C 2,1 km/h (1 Bft)
17.02.2014 01:35 3,1 C 14,3 C 2,7 C 2,7 C 1,9 C 0,0 C 85 % 91 % 0 % 1015,8 hPa 0,0 l/m 1,6 km/h (1 Bft) O-NO 67 0 min 0,0 UV-I 0,8 C 1,9 C 4,2 km/h (1 Bft)
17.02.2014 01:40 2,9 C 14,3 C 2,7 C 2,6 C 1,9 C 0,0 C 86 % 91 % 0 % 1015,8 hPa 0,0 l/m 1,9 km/h (1 Bft) W-NW 292 0 min 0,0 UV-I 0,8 C 1,9 C 2,4 km/h (1 Bft)
17.02.2014 01:45 2,9 C 14,3 C 2,7 C 2,6 C 1,9 C 0,0 C 86 % 91 % 0 % 1015,8 hPa 0,0 l/m 1,4 km/h (1 Bft) O-SO 112 0 min 0,0 UV-I 0,8 C 1,9 C 1,9 km/h (1 Bft)
17.02.2014 01:50 2,9 C 14,2 C 2,9 C 2,6 C 2,1 C 0,0 C 86 % 91 % 0 % 1015,9 hPa 0,0 l/m 2,1 km/h (1 Bft) W-NW 292 0 min 0,0 UV-I 0,8 C 2,1 C 5,0 km/h (1 Bft)
17.02.2014 01:55 3,1 C 14,2 C 2,8 C 2,7 C 1,9 C 0,0 C 86 % 91 % 0 % 1015,9 hPa 0,0 l/m 3,1 km/h (1 Bft) SO 135 0 min 0,0 UV-I 1,0 C 1,9 C 4,3 km/h (1 Bft)
17.02.2014 02:00 3,1 C 14,2 C 2,8 C 2,7 C 1,9 C 0,0 C 86 % 91 % 0 % 1015,9 hPa 0,0 l/m 3,4 km/h (1 Bft) S-SO 157 0 min 0,0 UV-I 1,0 C 1,9 C 5,3 km/h (1 Bft)
17.02.2014 02:05 3,1 C 14,2 C 2,8 C 2,8 C 2,1 C 0,0 C 86 % 91 % 0 % 1015,9 hPa 0,0 l/m 3,1 km/h (1 Bft) S-SO 157 0 min 0,0 UV-I 1,0 C 2,1 C 4,2 km/h (1 Bft)
17.02.2014 02:10 3,1 C 14,2 C 2,8 C 2,9 C 2,4 C 0,0 C 86 % 91 % 0 % 1015,8 hPa 0,0 l/m 2,1 km/h (1 Bft) O-SO 112 0 min 0,0 UV-I 1,0 C 2,4 C 0,0 km/h (0 Bft)
17.02.2014 02:15 3,1 C 14,2 C 2,9 C 2,9 C 2,5 C 0,0 C 86 % 91 % 0 % 1015,8 hPa 0,0 l/m 1,4 km/h (1 Bft) O 90 0 min 0,0 UV-I 1,0 C 2,5 C 1,6 km/h (1 Bft)
17.02.2014 02:20 2,9 C 14,2 C 2,9 C 2,8 C 2,6 C 0,0 C 86 % 91 % 0 % 1015,8 hPa 0,0 l/m 0,8 km/h (0 Bft) W-SW 247 0 min 0,0 UV-I 0,8 C 2,6 C 4,3 km/h (1 Bft)
17.02.2014 02:25 2,9 C 14,2 C 2,9 C 2,9 C 2,8 C 0,0 C 86 % 91 % 0 % 1015,8 hPa 0,0 l/m 0,6 km/h (0 Bft) SO 135 0 min 0,0 UV-I 0,8 C 2,8 C 1,6 km/h (1 Bft)
17.02.2014 02:30 2,9 C 14,3 C 3,1 C 2,9 C 2,9 C 0,0 C 86 % 91 % 0 % 1015,9 hPa 0,0 l/m 1,3 km/h (1 Bft) S-SO 157 0 min 0,0 UV-I 0,8 C 2,9 C 2,4 km/h (1 Bft)
17.02.2014 02:35 2,9 C 14,3 C 3,1 C 2,9 C 2,9 C 0,0 C 86 % 91 % 0 % 1015,9 hPa 0,0 l/m 1,4 km/h (1 Bft) S 180 0 min 0,0 UV-I 0,8 C 2,9 C 3,1 km/h (1 Bft)
17.02.2014 02:40 2,9 C 14,3 C 3,2 C 2,9 C 2,9 C 0,0 C 86 % 91 % 0 % 1015,9 hPa 0,0 l/m 1,1 km/h (1 Bft) SO 135 0 min 0,0 UV-I 0,8 C 2,9 C 4,2 km/h (1 Bft)
17.02.2014 02:45 3,0 C 14,3 C 3,3 C 3,0 C 2,9 C 0,0 C 86 % 91 % 0 % 1015,9 hPa 0,0 l/m 1,9 km/h (1 Bft) S-SO 157 0 min 0,0 UV-I 0,9 C 2,9 C 2,9 km/h (1 Bft)
17.02.2014 02:50 3,0 C 14,2 C 3,2 C 2,9 C 2,8 C 0,0 C 86 % 91 % 0 % 1015,7 hPa 0,0 l/m 1,8 km/h (1 Bft) SO 135 0 min 0,0 UV-I 0,9 C 2,8 C 2,1 km/h (1 Bft)
17.02.2014 02:55 3,0 C 14,2 C 3,2 C 2,9 C 2,8 C 0,0 C 86 % 91 % 0 % 1015,7 hPa 0,0 l/m 1,1 km/h (1 Bft) S 180 0 min 0,0 UV-I 0,9 C 2,8 C 1,9 km/h (1 Bft)
17.02.2014 03:00 3,0 C 14,2 C 3,2 C 2,9 C 2,8 C 0,0 C 86 % 91 % 0 % 1015,7 hPa 0,0 l/m 1,3 km/h (1 Bft) SO 135 0 min 0,0 UV-I 0,9 C 2,8 C 2,1 km/h (1 Bft)
17.02.2014 03:05 2,9 C 14,2 C 3,3 C 2,9 C 2,8 C 0,0 C 86 % 91 % 0 % 1015,7 hPa 0,0 l/m 1,3 km/h (1 Bft) SW 225 0 min 0,0 UV-I 0,8 C 2,8 C 0,0 km/h (0 Bft)
17.02.2014 03:10 2,9 C 14,2 C 3,3 C 2,9 C 2,9 C 0,0 C 86 % 91 % 0 % 1016,1 hPa 0,0 l/m 0,5 km/h (0 Bft) S 180 0 min 0,0 UV-I 0,8 C 2,9 C 0,0 km/h (0 Bft)
17.02.2014 03:15 2,9 C 14,2 C 3,3 C 2,9 C 2,9 C 0,0 C 86 % 91 % 0 % 1016,1 hPa 0,0 l/m 0,5 km/h (0 Bft) S-SO 157 0 min 0,0 UV-I 0,8 C 2,9 C 4,3 km/h (1 Bft)
17.02.2014 03:20 3,1 C 14,2 C 3,5 C 3,1 C 3,0 C 0,0 C 87 % 91 % 0 % 1016,1 hPa 0,0 l/m 1,0 km/h (0 Bft) W-SW 247 0 min 0,0 UV-I 1,2 C 3,0 C 0,0 km/h (0 Bft)
17.02.2014 03:25 3,1 C 14,2 C 3,4 C 3,1 C 3,1 C 0,0 C 87 % 91 % 0 % 1016,1 hPa 0,0 l/m 1,0 km/h (0 Bft) SW 225 0 min 0,0 UV-I 1,2 C 3,1 C 0,0 km/h (0 Bft)
17.02.2014 03:30 3,0 C 14,2 C 3,4 C 3,1 C 3,1 C 0,1 C 87 % 91 % 0 % 1015,6 hPa 0,0 l/m 0,2 km/h (0 Bft) O-SO 112 0 min 0,0 UV-I 1,1 C 3,1 C 0,0 km/h (0 Bft)
17.02.2014 03:35 2,9 C 14,2 C 3,4 C 3,1 C 3,1 C 0,2 C 87 % 91 % 0 % 1015,6 hPa 0,0 l/m 0,8 km/h (0 Bft) S-SO 157 0 min 0,0 UV-I 1,0 C 3,1 C 3,5 km/h (1 Bft)
17.02.2014 03:40 3,0 C 14,2 C 3,5 C 3,1 C 3,1 C 0,1 C 87 % 91 % 0 % 1015,6 hPa 0,0 l/m 1,3 km/h (1 Bft) W 270 0 min 0,0 UV-I 1,1 C 3,1 C 0,0 km/h (0 Bft)
17.02.2014 03:45 3,1 C 14,1 C 3,6 C 3,2 C 3,2 C 0,1 C 87 % 91 % 0 % 1015,6 hPa 0,0 l/m 1,0 km/h (0 Bft) W-SW 247 0 min 0,0 UV-I 1,2 C 3,2 C 0,0 km/h (0 Bft)
17.02.2014 03:50 3,1 C 14,1 C 3,6 C 3,3 C 3,3 C 0,2 C 87 % 91 % 0 % 1015,6 hPa 0,0 l/m 0,5 km/h (0 Bft) W-SW 247 0 min 0,0 UV-I 1,2 C 3,3 C 1,6 km/h (1 Bft)
17.02.2014 03:55 3,1 C 14,1 C 3,7 C 3,3 C 3,3 C 0,2 C 87 % 91 % 0 % 1015,6 hPa 0,0 l/m 0,6 km/h (0 Bft) O-SO 112 0 min 0,0 UV-I 1,2 C 3,3 C 0,0 km/h (0 Bft)
17.02.2014 04:00 3,2 C 14,0 C 3,9 C 3,5 C 3,5 C 0,3 C 87 % 91 % 0 % 1015,6 hPa 0,0 l/m 1,1 km/h (1 Bft) SO 135 0 min 0,0 UV-I 1,2 C 3,5 C 0,0 km/h (0 Bft)
17.02.2014 04:05 3,2 C 14,0 C 3,8 C 3,5 C 3,5 C 0,3 C 87 % 91 % 0 % 1015,6 hPa 0,0 l/m 1,3 km/h (1 Bft) O-SO 112 0 min 0,0 UV-I 1,2 C 3,5 C 2,6 km/h (1 Bft)
17.02.2014 04:10 3,3 C 14,1 C 3,9 C 3,5 C 3,5 C 0,2 C 87 % 91 % 0 % 1015,5 hPa 0,0 l/m 1,3 km/h (1 Bft) S-SW 202 0 min 0,0 UV-I 1,3 C 3,5 C 5,0 km/h (1 Bft)
17.02.2014 04:15 3,4 C 14,0 C 3,8 C 3,5 C 3,5 C 0,1 C 86 % 91 % 0 % 1015,5 hPa 0,0 l/m 1,9 km/h (1 Bft) N-NW 337 0 min 0,0 UV-I 1,3 C 3,5 C 6,8 km/h (2 Bft)
17.02.2014 04:20 3,5 C 14,0 C 3,9 C 3,5 C 3,4 C 0,0 C 86 % 91 % 0 % 1015,5 hPa 0,0 l/m 3,1 km/h (1 Bft) S-SW 202 0 min 0,0 UV-I 1,4 C 3,4 C 8,4 km/h (2 Bft)
17.02.2014 04:25 3,6 C 14,0 C 3,9 C 3,4 C 3,1 C 0,0 C 86 % 91 % 0 % 1015,5 hPa 0,0 l/m 3,7 km/h (1 Bft) W-SW 247 0 min 0,0 UV-I 1,5 C 3,1 C 4,5 km/h (1 Bft)
17.02.2014 04:30 3,6 C 14,0 C 3,7 C 3,4 C 3,1 C 0,0 C 85 % 91 % 0 % 1015,7 hPa 0,0 l/m 3,4 km/h (1 Bft) SW 225 0 min 0,0 UV-I 1,3 C 3,1 C 4,5 km/h (1 Bft)
17.02.2014 04:35 3,6 C 14,0 C 3,6 C 3,4 C 3,1 C 0,0 C 85 % 91 % 0 % 1015,7 hPa 0,0 l/m 2,9 km/h (1 Bft) S-SO 157 0 min 0,0 UV-I 1,3 C 3,1 C 5,3 km/h (1 Bft)
17.02.2014 04:40 3,7 C 14,0 C 3,5 C 3,5 C 3,0 C 0,0 C 85 % 91 % 0 % 1015,7 hPa 0,0 l/m 2,6 km/h (1 Bft) O-SO 112 0 min 0,0 UV-I 1,4 C 3,0 C 2,9 km/h (1 Bft)
17.02.2014 04:45 3,6 C 14,0 C 3,3 C 3,3 C 2,8 C 0,0 C 85 % 91 % 0 % 1015,7 hPa 0,0 l/m 2,6 km/h (1 Bft) W-SW 247 0 min 0,0 UV-I 1,3 C 2,8 C 5,3 km/h (1 Bft)
17.02.2014 04:50 3,5 C 14,0 C 3,2 C 3,2 C 2,6 C 0,0 C 85 % 91 % 0 % 1015,8 hPa 0,0 l/m 1,8 km/h (1 Bft) O-SO 112 0 min 0,0 UV-I 1,2 C 2,6 C 0,0 km/h (0 Bft)
17.02.2014 04:55 3,5 C 14,0 C 3,1 C 3,1 C 2,4 C 0,0 C 85 % 91 % 0 % 1015,8 hPa 0,0 l/m 1,3 km/h (1 Bft) S-SO 157 0 min 0,0 UV-I 1,2 C 2,4 C 0,0 km/h (0 Bft)
17.02.2014 05:00 3,3 C 14,0 C 2,8 C 2,9 C 2,1 C 0,0 C 85 % 91 % 0 % 1015,8 hPa 0,0 l/m 0,5 km/h (0 Bft) O-SO 112 0 min 0,0 UV-I 1,0 C 2,1 C 3,1 km/h (1 Bft)
17.02.2014 05:05 3,2 C 14,0 C 2,7 C 2,8 C 2,0 C 0,0 C 85 % 91 % 0 % 1015,8 hPa 0,0 l/m 0,5 km/h (0 Bft) S-SW 202 0 min 0,0 UV-I 0,9 C 2,0 C 1,8 km/h (1 Bft)
17.02.2014 05:10 3,2 C 14,0 C 2,6 C 2,8 C 1,9 C 0,0 C 85 % 91 % 0 % 1015,9 hPa 0,0 l/m 1,6 km/h (1 Bft) S-SW 202 0 min 0,0 UV-I 0,9 C 1,9 C 3,2 km/h (1 Bft)
17.02.2014 05:15 3,1 C 14,0 C 2,6 C 2,7 C 1,9 C 0,0 C 85 % 91 % 0 % 1015,9 hPa 0,0 l/m 1,9 km/h (1 Bft) S 180 0 min 0,0 UV-I 0,8 C 1,9 C 2,9 km/h (1 Bft)
17.02.2014 05:20 3,1 C 14,0 C 2,4 C 2,7 C 1,8 C 0,0 C 85 % 91 % 0 % 1015,9 hPa 0,0 l/m 1,3 km/h (1 Bft) SW 225 0 min 0,0 UV-I 0,8 C 1,8 C 0,0 km/h (0 Bft)
17.02.2014 05:25 2,9 C 14,0 C 2,4 C 2,5 C 1,6 C 0,0 C 85 % 91 % 0 % 1015,9 hPa 0,0 l/m 1,0 km/h (0 Bft) O-NO 67 0 min 0,0 UV-I 0,6 C 1,6 C 0,0 km/h (0 Bft)
17.02.2014 05:30 2,8 C 14,0 C 2,3 C 2,3 C 1,4 C 0,0 C 85 % 91 % 0 % 1016,6 hPa 0,0 l/m 0,3 km/h (0 Bft) SW 225 0 min 0,0 UV-I 0,5 C 1,4 C 3,4 km/h (1 Bft)
17.02.2014 05:35 2,8 C 14,0 C 2,4 C 2,4 C 1,5 C 0,0 C 85 % 91 % 0 % 1016,6 hPa 0,0 l/m 1,4 km/h (1 Bft) SO 135 0 min 0,0 UV-I 0,5 C 1,5 C 5,5 km/h (1 Bft)
17.02.2014 05:40 2,8 C 14,0 C 2,5 C 2,4 C 1,5 C 0,0 C 85 % 91 % 0 % 1016,6 hPa 0,0 l/m 1,9 km/h (1 Bft) S 180 0 min 0,0 UV-I 0,5 C 1,5 C 4,5 km/h (1 Bft)
17.02.2014 05:45 2,8 C 14,0 C 2,5 C 2,4 C 1,6 C 0,0 C 85 % 91 % 0 % 1016,6 hPa 0,0 l/m 1,9 km/h (1 Bft) S-SO 157 0 min 0,0 UV-I 0,5 C 1,6 C 1,6 km/h (1 Bft)
17.02.2014 05:50 2,8 C 14,0 C 2,5 C 2,4 C 1,6 C 0,0 C 85 % 91 % 0 % 1016,4 hPa 0,0 l/m 2,3 km/h (1 Bft) O-NO 67 0 min 0,0 UV-I 0,5 C 1,6 C 0,0 km/h (0 Bft)
17.02.2014 05:55 2,7 C 14,0 C 2,4 C 2,3 C 1,6 C 0,0 C 85 % 91 % 0 % 1016,4 hPa 0,0 l/m 1,4 km/h (1 Bft) S-SO 157 0 min 0,0 UV-I 0,4 C 1,6 C 3,1 km/h (1 Bft)
17.02.2014 06:00 2,7 C 14,0 C 2,5 C 2,3 C 1,5 C 0,0 C 85 % 91 % 0 % 1016,4 hPa 0,0 l/m 1,3 km/h (1 Bft) S 180 0 min 0,0 UV-I 0,4 C 1,5 C 3,2 km/h (1 Bft)
17.02.2014 06:05 2,7 C 14,0 C 2,4 C 2,3 C 1,5 C 0,0 C 85 % 91 % 0 % 1016,4 hPa 0,0 l/m 1,4 km/h (1 Bft) S-SW 202 0 min 0,0 UV-I 0,4 C 1,5 C 0,0 km/h (0 Bft)
17.02.2014 06:10 2,7 C 13,9 C 2,5 C 2,3 C 1,5 C 0,0 C 85 % 91 % 0 % 1016,1 hPa 0,0 l/m 2,3 km/h (1 Bft) O 90 0 min 0,0 UV-I 0,4 C 1,5 C 2,7 km/h (1 Bft)
17.02.2014 06:15 2,7 C 13,9 C 2,4 C 2,3 C 1,4 C 0,0 C 85 % 91 % 0 % 1016,1 hPa 0,0 l/m 2,9 km/h (1 Bft) S 180 0 min 0,0 UV-I 0,4 C 1,4 C 1,9 km/h (1 Bft)
17.02.2014 06:20 2,7 C 13,9 C 2,3 C 2,3 C 1,6 C 0,0 C 85 % 91 % 0 % 1016,1 hPa 0,0 l/m 2,6 km/h (1 Bft) O-SO 112 0 min 0,0 UV-I 0,4 C 1,6 C 3,1 km/h (1 Bft)
17.02.2014 06:25 2,7 C 13,9 C 2,3 C 2,3 C 1,5 C 0,0 C 85 % 91 % 0 % 1016,1 hPa 0,0 l/m 2,4 km/h (1 Bft) SO 135 0 min 0,0 UV-I 0,4 C 1,5 C 3,5 km/h (1 Bft)
17.02.2014 06:30 2,7 C 13,9 C 2,3 C 2,3 C 1,4 C 0,0 C 85 % 91 % 0 % 1016,3 hPa 0,0 l/m 2,6 km/h (1 Bft) O-SO 112 0 min 0,0 UV-I 0,4 C 1,4 C 4,0 km/h (1 Bft)
17.02.2014 06:35 2,7 C 13,9 C 2,1 C 2,3 C 1,4 C 0,0 C 85 % 91 % 0 % 1016,3 hPa 0,0 l/m 2,6 km/h (1 Bft) SO 135 0 min 0,0 UV-I 0,4 C 1,4 C 2,1 km/h (1 Bft)
17.02.2014 06:40 2,6 C 13,9 C 2,1 C 2,2 C 1,4 C 0,0 C 85 % 91 % 0 % 1016,3 hPa 0,0 l/m 2,6 km/h (1 Bft) S-SO 157 0 min 0,0 UV-I 0,3 C 1,4 C 3,1 km/h (1 Bft)
17.02.2014 06:45 2,5 C 13,9 C 2,0 C 2,1 C 1,4 C 0,0 C 85 % 91 % 0 % 1016,3 hPa 0,0 l/m 2,3 km/h (1 Bft) SO 135 0 min 0,0 UV-I 0,2 C 1,4 C 3,7 km/h (1 Bft)
17.02.2014 06:50 2,4 C 13,9 C 2,1 C 2,0 C 1,2 C 0,0 C 85 % 91 % 0 % 1016,2 hPa 0,0 l/m 1,3 km/h (1 Bft) SO 135 0 min 0,0 UV-I 0,1 C 1,2 C 3,1 km/h (1 Bft)
17.02.2014 06:55 2,5 C 13,9 C 1,9 C 2,0 C 1,1 C 0,0 C 85 % 91 % 0 % 1016,2 hPa 0,0 l/m 1,0 km/h (0 Bft) SO 135 0 min 0,0 UV-I 0,2 C 1,1 C 1,8 km/h (1 Bft)
17.02.2014 07:00 2,3 C 13,9 C 1,7 C 1,8 C 0,9 C 0,0 C 85 % 91 % 0 % 1016,2 hPa 0,0 l/m 0,5 km/h (0 Bft) O-SO 112 0 min 0,0 UV-I 0,0 C 0,9 C 0,0 km/h (0 Bft)
17.02.2014 07:05 2,3 C 13,9 C 1,6 C 1,8 C 0,7 C 0,0 C 85 % 91 % 0 % 1016,2 hPa 0,0 l/m 0,2 km/h (0 Bft) W-NW 292 0 min 0,0 UV-I 0,0 C 0,7 C 0,0 km/h (0 Bft)
17.02.2014 07:10 2,0 C 13,9 C 1,3 C 1,5 C 0,5 C 0,0 C 85 % 91 % 0 % 1016,8 hPa 0,0 l/m 0,0 km/h (0 Bft) O-NO 67 0 min 0,0 UV-I -0,3 C 0,5 C 0,0 km/h (0 Bft)
17.02.2014 07:15 1,9 C 13,9 C 1,2 C 1,4 C 0,4 C 0,0 C 85 % 91 % 0 % 1016,8 hPa 0,0 l/m 0,0 km/h (0 Bft) N 360 0 min 0,0 UV-I -0,3 C 0,4 C 0,0 km/h (0 Bft)
17.02.2014 07:20 1,9 C 13,9 C 1,2 C 1,4 C 0,3 C 0,0 C 85 % 91 % 0 % 1016,8 hPa 0,0 l/m 0,0 km/h (0 Bft) O-NO 67 0 min 0,0 UV-I -0,3 C 0,3 C 0,0 km/h (0 Bft)
17.02.2014 07:25 1,7 C 13,9 C 1,0 C 1,2 C 0,3 C 0,0 C 86 % 91 % 0 % 1016,8 hPa 0,0 l/m 0,0 km/h (0 Bft) NO 45 0 min 0,0 UV-I -0,4 C 0,3 C 0,0 km/h (0 Bft)
17.02.2014 07:30 1,6 C 13,9 C 1,0 C 1,2 C 0,3 C 0,0 C 86 % 92 % 0 % 1017,0 hPa 0,0 l/m 0,0 km/h (0 Bft) N-NO 22 0 min 0,0 UV-I -0,5 C 0,3 C 0,0 km/h (0 Bft)
17.02.2014 07:35 1,6 C 13,9 C 0,8 C 1,2 C 0,4 C 0,0 C 86 % 91 % 0 % 1017,0 hPa 0,0 l/m 0,0 km/h (0 Bft) N-NO 22 0 min 0,0 UV-I -0,5 C 0,4 C 0,0 km/h (0 Bft)
17.02.2014 07:40 1,5 C 13,9 C 0,8 C 1,2 C 0,5 C 0,0 C 86 % 91 % 0 % 1017,0 hPa 0,0 l/m 0,0 km/h (0 Bft) NO 45 0 min 0,0 UV-I -0,6 C 0,5 C 0,0 km/h (0 Bft)
17.02.2014 07:45 1,4 C 13,9 C 0,9 C 1,1 C 0,6 C 0,0 C 86 % 92 % 0 % 1017,0 hPa 0,0 l/m 0,0 km/h (0 Bft) O-NO 67 0 min 0,0 UV-I -0,7 C 0,6 C 0,0 km/h (0 Bft)
17.02.2014 07:50 1,5 C 13,9 C 0,9 C 1,2 C 0,6 C 0,0 C 86 % 92 % 0 % 1017,0 hPa 0,0 l/m 0,0 km/h (0 Bft) NW 315 0 min 0,0 UV-I -0,6 C 0,6 C 0,0 km/h (0 Bft)
17.02.2014 07:55 1,4 C 13,9 C 0,9 C 1,2 C 0,7 C 0,0 C 86 % 92 % 0 % 1017,0 hPa 0,0 l/m 0,0 km/h (0 Bft) N-NO 22 0 min 0,0 UV-I -0,7 C 0,7 C 0,0 km/h (0 Bft)
17.02.2014 08:00 1,5 C 13,9 C 1,1 C 1,4 C 1,1 C 0,0 C 86 % 92 % 0 % 1017,0 hPa 0,0 l/m 0,0 km/h (0 Bft) NO 45 0 min 0,0 UV-I -0,6 C 1,1 C 0,0 km/h (0 Bft)
17.02.2014 08:05 1,5 C 13,9 C 1,1 C 1,5 C 1,4 C 0,0 C 87 % 92 % 0 % 1017,0 hPa 0,0 l/m 0,0 km/h (0 Bft) O-NO 67 0 min 0,0 UV-I -0,4 C 1,4 C 0,0 km/h (0 Bft)
17.02.2014 08:10 1,5 C 13,9 C 1,2 C 1,7 C 1,7 C 0,2 C 87 % 92 % 5 % 1017,2 hPa 0,0 l/m 0,0 km/h (0 Bft) NO 45 0 min 0,0 UV-I -0,4 C 1,7 C 0,0 km/h (0 Bft)
17.02.2014 08:15 1,6 C 13,9 C 1,4 C 2,1 C 2,1 C 0,5 C 87 % 92 % 13 % 1017,2 hPa 0,0 l/m 0,0 km/h (0 Bft) O-NO 67 0 min 0,0 UV-I -0,3 C 2,1 C 0,0 km/h (0 Bft)
17.02.2014 08:20 1,6 C 13,9 C 1,6 C 2,5 C 2,5 C 0,9 C 87 % 92 % 24 % 1017,2 hPa 0,0 l/m 0,8 km/h (0 Bft) N-NO 22 0 min 0,0 UV-I -0,3 C 2,5 C 0,0 km/h (0 Bft)
17.02.2014 08:25 1,8 C 13,8 C 1,7 C 2,8 C 2,8 C 1,0 C 87 % 92 % 26 % 1017,2 hPa 0,0 l/m 1,0 km/h (0 Bft) N-NO 22 0 min 0,0 UV-I -0,1 C 2,8 C 1,9 km/h (1 Bft)
17.02.2014 08:30 2,0 C 13,8 C 2,3 C 3,3 C 3,3 C 1,3 C 87 % 92 % 34 % 1017,4 hPa 0,0 l/m 0,6 km/h (0 Bft) O-NO 67 0 min 0,0 UV-I 0,1 C 3,3 C 0,0 km/h (0 Bft)
17.02.2014 08:35 2,1 C 13,8 C 2,7 C 4,0 C 4,0 C 1,9 C 87 % 92 % 50 % 1017,4 hPa 0,0 l/m 0,5 km/h (0 Bft) S 180 5 min 0,0 UV-I 0,2 C 4,0 C 0,0 km/h (0 Bft)
17.02.2014 08:40 2,4 C 13,7 C 3,1 C 4,8 C 4,8 C 2,4 C 87 % 91 % 63 % 1017,4 hPa 0,0 l/m 0,0 km/h (0 Bft) S 180 5 min 0,0 UV-I 0,5 C 4,8 C 0,0 km/h (0 Bft)
17.02.2014 08:45 2,5 C 13,7 C 3,3 C 4,9 C 4,9 C 2,4 C 87 % 92 % 63 % 1017,4 hPa 0,0 l/m 0,2 km/h (0 Bft) S-SO 157 5 min 0,0 UV-I 0,6 C 4,9 C 0,0 km/h (0 Bft)
17.02.2014 08:50 2,7 C 13,6 C 3,3 C 5,4 C 5,4 C 2,7 C 87 % 92 % 71 % 1017,3 hPa 0,0 l/m 0,0 km/h (0 Bft) SW 225 5 min 0,0 UV-I 0,8 C 5,4 C 0,0 km/h (0 Bft)
17.02.2014 08:55 2,7 C 13,7 C 3,5 C 5,5 C 5,5 C 2,8 C 87 % 91 % 74 % 1017,3 hPa 0,0 l/m 0,0 km/h (0 Bft) S-SO 157 5 min 0,0 UV-I 0,8 C 5,5 C 0,0 km/h (0 Bft)
17.02.2014 09:00 2,8 C 13,6 C 4,0 C 5,5 C 5,5 C 2,7 C 86 % 91 % 71 % 1017,3 hPa 0,0 l/m 0,3 km/h (0 Bft) S-SO 157 5 min 0,0 UV-I 0,7 C 5,5 C 2,1 km/h (1 Bft)
17.02.2014 09:05 2,8 C 13,6 C 4,4 C 5,3 C 5,3 C 2,5 C 86 % 91 % 66 % 1017,3 hPa 0,0 l/m 1,0 km/h (0 Bft) S-SO 157 5 min 0,0 UV-I 0,7 C 5,3 C 3,1 km/h (1 Bft)
17.02.2014 09:10 3,0 C 13,5 C 5,1 C 5,2 C 5,2 C 2,2 C 86 % 91 % 58 % 1017,4 hPa 0,0 l/m 2,1 km/h (1 Bft) SW 225 0 min 0,0 UV-I 0,9 C 5,2 C 3,1 km/h (1 Bft)
17.02.2014 09:15 3,3 C 13,5 C 5,5 C 5,2 C 5,2 C 1,9 C 86 % 91 % 50 % 1017,4 hPa 0,0 l/m 1,8 km/h (1 Bft) O-NO 67 0 min 0,0 UV-I 1,2 C 5,2 C 0,0 km/h (0 Bft)
17.02.2014 09:20 3,3 C 13,4 C 5,6 C 5,1 C 5,1 C 1,8 C 86 % 91 % 47 % 1017,4 hPa 0,0 l/m 0,8 km/h (0 Bft) W 270 0 min 0,0 UV-I 1,2 C 5,1 C 0,0 km/h (0 Bft)
17.02.2014 09:25 3,5 C 13,4 C 5,7 C 5,3 C 5,3 C 1,8 C 86 % 90 % 47 % 1017,4 hPa 0,0 l/m 1,3 km/h (1 Bft) O-SO 112 0 min 0,0 UV-I 1,4 C 5,3 C 4,3 km/h (1 Bft)
17.02.2014 09:30 3,8 C 13,4 C 6,0 C 5,5 C 5,5 C 1,7 C 85 % 90 % 45 % 1017,6 hPa 0,0 l/m 1,9 km/h (1 Bft) S 180 0 min 0,0 UV-I 1,5 C 5,5 C 4,5 km/h (1 Bft)
17.02.2014 09:35 3,9 C 13,4 C 5,9 C 5,6 C 5,6 C 1,7 C 85 % 90 % 45 % 1017,6 hPa 0,0 l/m 1,6 km/h (1 Bft) O-SO 112 0 min 0,0 UV-I 1,6 C 5,6 C 0,0 km/h (0 Bft)
17.02.2014 09:40 4,1 C 13,4 C 5,6 C 6,4 C 6,4 C 2,3 C 85 % 90 % 61 % 1017,6 hPa 0,0 l/m 1,6 km/h (1 Bft) SO 135 0 min 0,0 UV-I 1,8 C 6,4 C 4,8 km/h (1 Bft)
17.02.2014 09:45 4,3 C 13,3 C 5,5 C 6,1 C 6,1 C 1,8 C 85 % 89 % 47 % 1017,6 hPa 0,0 l/m 2,1 km/h (1 Bft) SO 135 0 min 0,0 UV-I 2,0 C 6,1 C 3,4 km/h (1 Bft)
17.02.2014 09:50 4,8 C 13,3 C 5,6 C 6,2 C 6,2 C 1,4 C 84 % 89 % 37 % 1017,6 hPa 0,0 l/m 2,7 km/h (1 Bft) O 90 0 min 0,0 UV-I 2,3 C 6,2 C 1,6 km/h (1 Bft)
17.02.2014 09:55 5,1 C 13,3 C 5,6 C 6,2 C 6,2 C 1,1 C 84 % 89 % 29 % 1017,6 hPa 0,0 l/m 2,3 km/h (1 Bft) SO 135 0 min 0,0 UV-I 2,6 C 6,2 C 3,4 km/h (1 Bft)
17.02.2014 10:00 5,3 C 13,3 C 5,6 C 6,8 C 6,8 C 1,5 C 82 % 89 % 39 % 1017,6 hPa 0,0 l/m 2,6 km/h (1 Bft) S 180 0 min 0,0 UV-I 2,5 C 6,8 C 11,7 km/h (2 Bft)
17.02.2014 10:05 5,5 C 13,3 C 5,6 C 7,3 C 7,3 C 1,8 C 81 % 89 % 47 % 1017,6 hPa 0,0 l/m 4,7 km/h (1 Bft) S 180 0 min 0,0 UV-I 2,5 C 6,8 C 9,8 km/h (2 Bft)
17.02.2014 10:10 5,7 C 13,3 C 5,6 C 6,6 C 6,6 C 0,9 C 81 % 89 % 24 % 1017,7 hPa 0,0 l/m 6,4 km/h (2 Bft) S 180 0 min 0,0 UV-I 2,7 C 5,4 C 8,7 km/h (2 Bft)
17.02.2014 10:15 5,8 C 13,3 C 5,6 C 6,2 C 6,2 C 0,4 C 81 % 89 % 11 % 1017,7 hPa 0,0 l/m 5,8 km/h (2 Bft) W-SW 247 0 min 0,0 UV-I 2,8 C 5,2 C 3,2 km/h (1 Bft)
17.02.2014 10:20 6,1 C 13,3 C 5,9 C 6,4 C 6,4 C 0,3 C 81 % 89 % 8 % 1017,7 hPa 0,0 l/m 5,1 km/h (1 Bft) S 180 0 min 0,0 UV-I 3,1 C 5,6 C 12,7 km/h (3 Bft)
17.02.2014 10:25 6,1 C 13,3 C 5,9 C 7,3 C 7,3 C 1,2 C 81 % 88 % 32 % 1017,7 hPa 0,0 l/m 4,2 km/h (1 Bft) SW 225 0 min 0,0 UV-I 3,1 C 7,3 C 7,6 km/h (2 Bft)
17.02.2014 10:30 6,4 C 13,3 C 6,0 C 7,4 C 7,4 C 1,0 C 80 % 88 % 26 % 1017,3 hPa 0,0 l/m 4,3 km/h (1 Bft) SO 135 0 min 0,0 UV-I 3,2 C 7,4 C 7,9 km/h (2 Bft)
17.02.2014 10:35 6,4 C 13,3 C 6,3 C 8,1 C 8,1 C 1,7 C 80 % 88 % 45 % 1017,3 hPa 0,0 l/m 3,7 km/h (1 Bft) SO 135 0 min 0,0 UV-I 3,2 C 8,1 C 3,2 km/h (1 Bft)
17.02.2014 10:40 6,7 C 13,3 C 6,3 C 7,7 C 7,7 C 1,0 C 79 % 87 % 26 % 1017,3 hPa 0,0 l/m 5,3 km/h (1 Bft) SO 135 0 min 0,0 UV-I 3,3 C 7,0 C 15,6 km/h (3 Bft)
17.02.2014 10:45 6,8 C 13,3 C 6,4 C 7,6 C 7,6 C 0,8 C 79 % 87 % 21 % 1017,3 hPa 0,0 l/m 6,4 km/h (2 Bft) N 360 0 min 0,0 UV-I 3,4 C 6,6 C 12,7 km/h (3 Bft)
17.02.2014 10:50 6,8 C 13,3 C 6,4 C 7,9 C 7,9 C 1,1 C 78 % 87 % 29 % 1017,8 hPa 0,0 l/m 6,6 km/h (2 Bft) S-SW 202 0 min 0,0 UV-I 3,2 C 6,9 C 17,7 km/h (3 Bft)
17.02.2014 10:55 7,0 C 13,3 C 6,5 C 8,0 C 8,0 C 1,0 C 77 % 86 % 26 % 1017,8 hPa 0,0 l/m 7,2 km/h (2 Bft) SW 225 0 min 0,0 UV-I 3,2 C 6,8 C 4,5 km/h (1 Bft)
17.02.2014 11:00 7,0 C 13,2 C 6,7 C 8,5 C 8,5 C 1,5 C 77 % 86 % 39 % 1017,8 hPa 0,0 l/m 5,3 km/h (1 Bft) O-SO 112 0 min 0,0 UV-I 3,2 C 8,0 C 6,6 km/h (2 Bft)
17.02.2014 11:05 7,2 C 13,2 C 6,8 C 9,1 C 9,1 C 1,9 C 78 % 86 % 50 % 1017,8 hPa 0,0 l/m 4,0 km/h (1 Bft) S 180 0 min 0,0 UV-I 3,6 C 9,1 C 4,7 km/h (1 Bft)
17.02.2014 11:10 7,3 C 13,3 C 6,9 C 9,6 C 9,6 C 2,3 C 78 % 86 % 61 % 1018,1 hPa 0,0 l/m 4,0 km/h (1 Bft) S 180 0 min 0,0 UV-I 3,7 C 9,6 C 10,8 km/h (2 Bft)
17.02.2014 11:15 7,5 C 13,2 C 7,0 C 9,7 C 9,7 C 2,2 C 77 % 86 % 58 % 1018,1 hPa 0,0 l/m 4,3 km/h (1 Bft) S-SW 202 0 min 0,0 UV-I 3,7 C 9,7 C 6,6 km/h (2 Bft)
17.02.2014 11:20 7,7 C 13,3 C 7,2 C 9,6 C 9,6 C 1,9 C 77 % 86 % 50 % 1018,1 hPa 0,0 l/m 4,7 km/h (1 Bft) S-SW 202 0 min 0,0 UV-I 3,9 C 9,4 C 6,6 km/h (2 Bft)
17.02.2014 11:25 7,7 C 13,3 C 7,3 C 9,4 C 9,4 C 1,7 C 75 % 86 % 45 % 1018,1 hPa 0,0 l/m 5,6 km/h (1 Bft) S 180 0 min 0,0 UV-I 3,6 C 8,9 C 9,8 km/h (2 Bft)
17.02.2014 11:30 7,7 C 13,3 C 7,3 C 8,8 C 8,8 C 1,1 C 74 % 85 % 29 % 1018,3 hPa 0,0 l/m 7,4 km/h (2 Bft) S 180 0 min 0,0 UV-I 3,4 C 7,7 C 12,9 km/h (3 Bft)
17.02.2014 11:35 7,9 C 13,3 C 7,3 C 9,1 C 8,7 C 1,2 C 73 % 85 % 32 % 1018,3 hPa 0,0 l/m 8,0 km/h (2 Bft) S 180 0 min 0,0 UV-I 3,4 C 7,5 C 10,1 km/h (2 Bft)
17.02.2014 11:40 8,0 C 13,3 C 7,4 C 9,2 C 9,0 C 1,2 C 72 % 84 % 32 % 1018,3 hPa 0,0 l/m 7,9 km/h (2 Bft) SW 225 0 min 0,0 UV-I 3,3 C 7,9 C 10,1 km/h (2 Bft)
17.02.2014 11:45 8,0 C 13,3 C 7,4 C 9,4 C 9,2 C 1,4 C 72 % 83 % 37 % 1018,3 hPa 0,0 l/m 7,7 km/h (2 Bft) S-SW 202 0 min 0,0 UV-I 3,3 C 8,1 C 6,9 km/h (2 Bft)
17.02.2014 11:50 8,1 C 13,3 C 7,6 C 9,6 C 9,3 C 1,5 C 72 % 83 % 39 % 1017,8 hPa 0,0 l/m 7,9 km/h (2 Bft) S 180 0 min 0,0 UV-I 3,4 C 8,2 C 8,2 km/h (2 Bft)
17.02.2014 11:55 8,1 C 13,3 C 7,6 C 9,6 C 9,2 C 1,5 C 70 % 82 % 39 % 1017,8 hPa 0,0 l/m 8,5 km/h (2 Bft) S 180 0 min 0,0 UV-I 3,0 C 8,0 C 9,3 km/h (2 Bft)
17.02.2014 12:00 8,3 C 13,3 C 7,7 C 10,0 C 9,9 C 1,7 C 70 % 82 % 45 % 1017,8 hPa 0,0 l/m 8,2 km/h (2 Bft) SW 225 0 min 0,0 UV-I 3,2 C 8,8 C 10,8 km/h (2 Bft)
17.02.2014 12:05 8,2 C 13,3 C 7,7 C 10,5 C 10,4 C 2,3 C 70 % 81 % 61 % 1017,8 hPa 0,0 l/m 7,7 km/h (2 Bft) SW 225 0 min 0,0 UV-I 3,1 C 10,4 C 10,8 km/h (2 Bft)
17.02.2014 12:10 8,4 C 13,3 C 7,8 C 11,5 C 11,7 C 3,1 C 70 % 81 % 82 % 1017,8 hPa 0,0 l/m 8,0 km/h (2 Bft) S 180 0 min 0,0 UV-I 3,3 C 11,7 C 8,9 km/h (2 Bft)
17.02.2014 12:15 8,4 C 13,4 C 7,9 C 11,8 C 11,6 C 3,4 C 70 % 80 % 89 % 1017,8 hPa 0,0 l/m 8,0 km/h (2 Bft) S 180 5 min 0,0 UV-I 3,3 C 11,6 C 7,6 km/h (2 Bft)
17.02.2014 12:20 8,7 C 13,4 C 8,0 C 11,9 C 11,7 C 3,2 C 70 % 80 % 84 % 1017,8 hPa 0,0 l/m 7,9 km/h (2 Bft) S 180 0 min 0,0 UV-I 3,5 C 11,7 C 13,4 km/h (3 Bft)
17.02.2014 12:25 8,7 C 13,4 C 8,1 C 11,7 C 11,7 C 3,0 C 70 % 81 % 79 % 1017,8 hPa 0,0 l/m 7,6 km/h (2 Bft) S 180 0 min 0,0 UV-I 3,5 C 11,7 C 5,8 km/h (2 Bft)
17.02.2014 12:30 8,9 C 13,4 C 8,3 C 11,9 C 11,9 C 3,0 C 70 % 80 % 79 % 1018,1 hPa 0,0 l/m 7,2 km/h (2 Bft) SW 225 0 min 0,0 UV-I 3,7 C 11,9 C 11,7 km/h (2 Bft)
17.02.2014 12:35 8,9 C 13,4 C 8,3 C 11,8 C 11,5 C 2,9 C 69 % 79 % 76 % 1018,1 hPa 0,0 l/m 7,7 km/h (2 Bft) W-SW 247 0 min 0,0 UV-I 3,5 C 11,5 C 8,9 km/h (2 Bft)
17.02.2014 12:40 8,8 C 13,4 C 8,5 C 11,3 C 10,8 C 2,5 C 69 % 78 % 66 % 1018,1 hPa 0,0 l/m 9,0 km/h (2 Bft) NW 315 0 min 0,0 UV-I 3,4 C 10,8 C 4,5 km/h (1 Bft)
17.02.2014 12:45 8,8 C 13,4 C 8,5 C 10,8 C 10,8 C 2,0 C 67 % 77 % 53 % 1018,1 hPa 0,0 l/m 9,0 km/h (2 Bft) S 180 0 min 0,0 UV-I 3,0 C 10,8 C 15,9 km/h (3 Bft)
17.02.2014 12:50 8,8 C 13,4 C 8,5 C 10,9 C 10,5 C 2,1 C 67 % 77 % 55 % 1017,9 hPa 0,0 l/m 8,9 km/h (2 Bft) S 180 0 min 0,0 UV-I 3,0 C 10,5 C 8,4 km/h (2 Bft)
17.02.2014 12:55 8,9 C 13,4 C 8,7 C 10,7 C 10,3 C 1,8 C 67 % 77 % 47 % 1017,9 hPa 0,0 l/m 9,2 km/h (2 Bft) S 180 0 min 0,0 UV-I 3,1 C 10,3 C 9,8 km/h (2 Bft)
17.02.2014 13:00 8,9 C 13,5 C 8,8 C 10,7 C 10,4 C 1,8 C 67 % 77 % 47 % 1017,9 hPa 0,0 l/m 8,5 km/h (2 Bft) S-SO 157 0 min 0,0 UV-I 3,1 C 10,4 C 20,1 km/h (4 Bft)
17.02.2014 13:05 9,1 C 13,5 C 8,9 C 10,4 C 10,4 C 1,3 C 66 % 76 % 34 % 1017,9 hPa 0,0 l/m 9,3 km/h (2 Bft) S 180 0 min 0,0 UV-I 3,1 C 10,4 C 10,3 km/h (2 Bft)
17.02.2014 13:10 9,1 C 13,5 C 9,2 C 11,0 C 10,9 C 1,9 C 67 % 76 % 50 % 1018,5 hPa 0,0 l/m 7,7 km/h (2 Bft) S-SO 157 0 min 0,0 UV-I 3,3 C 10,9 C 6,8 km/h (2 Bft)
17.02.2014 13:15 9,2 C 13,5 C 9,2 C 11,5 C 11,5 C 2,3 C 68 % 77 % 61 % 1018,5 hPa 0,0 l/m 5,6 km/h (1 Bft) S-SW 202 0 min 0,0 UV-I 3,6 C 11,5 C 7,4 km/h (2 Bft)
17.02.2014 13:20 9,2 C 13,6 C 9,1 C 11,6 C 11,6 C 2,4 C 67 % 77 % 63 % 1018,5 hPa 0,0 l/m 5,5 km/h (1 Bft) S 180 0 min 0,0 UV-I 3,4 C 11,6 C 11,3 km/h (2 Bft)
17.02.2014 13:25 9,2 C 13,6 C 9,0 C 11,1 C 11,1 C 1,9 C 65 % 76 % 50 % 1018,5 hPa 0,0 l/m 6,9 km/h (2 Bft) S 180 0 min 0,0 UV-I 3,0 C 11,1 C 8,9 km/h (2 Bft)
17.02.2014 13:30 9,2 C 13,6 C 8,8 C 10,8 C 10,3 C 1,6 C 67 % 77 % 42 % 1018,1 hPa 0,0 l/m 7,7 km/h (2 Bft) S 180 0 min 0,0 UV-I 3,4 C 10,3 C 12,9 km/h (3 Bft)
17.02.2014 13:35 9,2 C 13,6 C 8,8 C 10,3 C 10,3 C 1,1 C 67 % 77 % 29 % 1018,1 hPa 0,0 l/m 6,6 km/h (2 Bft) O 90 0 min 0,0 UV-I 3,4 C 10,3 C 7,6 km/h (2 Bft)
17.02.2014 13:40 9,3 C 13,6 C 8,7 C 9,9 C 9,9 C 0,6 C 66 % 77 % 16 % 1018,1 hPa 0,0 l/m 6,8 km/h (2 Bft) S-SO 157 0 min 0,0 UV-I 3,3 C 9,2 C 4,0 km/h (1 Bft)
17.02.2014 13:45 9,2 C 13,6 C 8,7 C 9,7 C 9,7 C 0,5 C 64 % 76 % 13 % 1018,1 hPa 0,0 l/m 6,8 km/h (2 Bft) S 180 0 min 0,0 UV-I 2,8 C 8,9 C 5,0 km/h (1 Bft)
17.02.2014 13:50 9,2 C 13,6 C 8,5 C 9,4 C 9,4 C 0,2 C 62 % 74 % 5 % 1018,1 hPa 0,0 l/m 7,6 km/h (2 Bft) S-SW 202 0 min 0,0 UV-I 2,3 C 8,4 C 12,4 km/h (3 Bft)
17.02.2014 13:55 9,5 C 13,6 C 8,8 C 10,2 C 10,1 C 0,7 C 63 % 74 % 18 % 1018,1 hPa 0,0 l/m 8,4 km/h (2 Bft) SW 225 0 min 0,0 UV-I 2,8 C 10,1 C 8,2 km/h (2 Bft)
17.02.2014 14:00 9,9 C 13,7 C 9,2 C 11,3 C 11,6 C 1,4 C 63 % 75 % 37 % 1018,1 hPa 0,0 l/m 8,4 km/h (2 Bft) SW 225 0 min 0,0 UV-I 3,2 C 11,6 C 5,6 km/h (1 Bft)
17.02.2014 14:05 9,9 C 13,7 C 9,3 C 11,9 C 11,9 C 2,0 C 61 % 73 % 53 % 1018,1 hPa 0,0 l/m 7,4 km/h (2 Bft) SW 225 0 min 0,0 UV-I 2,7 C 11,9 C 8,7 km/h (2 Bft)
17.02.2014 14:10 9,9 C 13,7 C 9,7 C 12,0 C 11,7 C 2,1 C 61 % 71 % 55 % 1018,1 hPa 0,0 l/m 8,7 km/h (2 Bft) W-SW 247 0 min 0,0 UV-I 2,7 C 11,7 C 11,6 km/h (2 Bft)
17.02.2014 14:15 10,0 C 13,7 C 9,6 C 11,9 C 11,6 C 1,9 C 58 % 69 % 50 % 1018,1 hPa 0,0 l/m 9,2 km/h (2 Bft) S 180 0 min 0,0 UV-I 2,1 C 11,6 C 13,5 km/h (3 Bft)
17.02.2014 14:20 10,0 C 13,8 C 9,7 C 12,0 C 11,8 C 2,0 C 61 % 71 % 53 % 1018,1 hPa 0,0 l/m 8,5 km/h (2 Bft) S 180 0 min 0,0 UV-I 2,8 C 11,8 C 11,4 km/h (2 Bft)
17.02.2014 14:25 10,3 C 13,8 C 9,7 C 12,2 C 12,1 C 1,9 C 60 % 70 % 50 % 1018,1 hPa 0,0 l/m 8,4 km/h (2 Bft) S 180 0 min 0,0 UV-I 2,9 C 12,1 C 14,2 km/h (3 Bft)
17.02.2014 14:30 10,1 C 13,8 C 9,7 C 12,0 C 11,5 C 1,9 C 60 % 69 % 50 % 1018,3 hPa 0,0 l/m 9,8 km/h (2 Bft) S 180 0 min 0,0 UV-I 2,7 C 11,5 C 20,8 km/h (4 Bft)
17.02.2014 14:35 10,3 C 13,8 C 9,6 C 11,7 C 11,3 C 1,4 C 59 % 68 % 37 % 1018,3 hPa 0,0 l/m 10,5 km/h (2 Bft) S-SO 157 0 min 0,0 UV-I 2,6 C 11,3 C 21,2 km/h (4 Bft)
17.02.2014 14:40 10,3 C 13,8 C 9,6 C 11,8 C 11,7 C 1,5 C 58 % 68 % 39 % 1018,3 hPa 0,0 l/m 9,3 km/h (2 Bft) SW 225 0 min 0,0 UV-I 2,4 C 11,7 C 14,0 km/h (3 Bft)
17.02.2014 14:45 10,0 C 13,8 C 9,5 C 11,6 C 11,1 C 1,6 C 60 % 68 % 42 % 1018,3 hPa 0,0 l/m 9,3 km/h (2 Bft) W-SW 247 0 min 0,0 UV-I 2,6 C 11,1 C 9,8 km/h (2 Bft)
17.02.2014 14:50 10,0 C 13,8 C 9,3 C 11,4 C 11,2 C 1,4 C 60 % 69 % 37 % 1018,3 hPa 0,0 l/m 8,2 km/h (2 Bft) W-SW 247 0 min 0,0 UV-I 2,6 C 11,2 C 10,0 km/h (2 Bft)
17.02.2014 14:55 10,1 C 13,8 C 9,5 C 11,8 C 11,9 C 1,7 C 61 % 70 % 45 % 1018,3 hPa 0,0 l/m 7,7 km/h (2 Bft) S 180 0 min 0,0 UV-I 2,9 C 11,9 C 10,6 km/h (2 Bft)
17.02.2014 15:00 10,3 C 13,8 C 9,6 C 12,5 C 12,5 C 2,2 C 60 % 69 % 58 % 1018,3 hPa 0,0 l/m 7,9 km/h (2 Bft) SW 225 0 min 0,0 UV-I 2,9 C 12,5 C 14,0 km/h (3 Bft)
17.02.2014 15:05 10,5 C 13,8 C 9,5 C 12,8 C 12,8 C 2,3 C 57 % 66 % 61 % 1018,3 hPa 0,0 l/m 7,9 km/h (2 Bft) S 180 0 min 0,0 UV-I 2,3 C 12,8 C 5,3 km/h (1 Bft)
17.02.2014 15:10 10,5 C 13,8 C 9,5 C 12,9 C 12,7 C 2,4 C 57 % 67 % 63 % 1018,1 hPa 0,0 l/m 9,5 km/h (2 Bft) W-SW 247 0 min 0,0 UV-I 2,3 C 12,7 C 20,3 km/h (4 Bft)
17.02.2014 15:15 10,4 C 13,8 C 9,4 C 12,8 C 12,5 C 2,4 C 57 % 66 % 63 % 1018,1 hPa 0,0 l/m 10,0 km/h (2 Bft) S-SW 202 0 min 0,0 UV-I 2,3 C 12,5 C 13,5 km/h (3 Bft)
17.02.2014 15:20 10,4 C 13,9 C 9,3 C 12,9 C 12,8 C 2,5 C 57 % 66 % 66 % 1018,1 hPa 0,0 l/m 9,2 km/h (2 Bft) SW 225 0 min 0,0 UV-I 2,3 C 12,8 C 15,0 km/h (3 Bft)
17.02.2014 15:25 10,3 C 13,9 C 9,3 C 12,6 C 12,2 C 2,3 C 57 % 66 % 61 % 1018,1 hPa 0,0 l/m 8,2 km/h (2 Bft) S-SO 157 0 min 0,0 UV-I 2,2 C 12,2 C 10,3 km/h (2 Bft)
17.02.2014 15:30 10,5 C 13,9 C 9,2 C 12,7 C 12,7 C 2,2 C 58 % 67 % 58 % 1018,2 hPa 0,0 l/m 7,6 km/h (2 Bft) S 180 0 min 0,0 UV-I 2,6 C 12,7 C 10,8 km/h (2 Bft)
17.02.2014 15:35 10,6 C 13,9 C 9,1 C 12,7 C 12,7 C 2,1 C 57 % 68 % 55 % 1018,2 hPa 0,0 l/m 7,9 km/h (2 Bft) S 180 0 min 0,0 UV-I 2,4 C 12,7 C 12,6 km/h (3 Bft)
17.02.2014 15:40 10,3 C 13,9 C 8,8 C 12,2 C 11,6 C 1,9 C 58 % 68 % 50 % 1018,2 hPa 0,0 l/m 9,2 km/h (2 Bft) S-SW 202 0 min 0,0 UV-I 2,4 C 11,6 C 13,8 km/h (3 Bft)
17.02.2014 15:45 10,1 C 13,9 C 8,7 C 11,7 C 11,4 C 1,6 C 59 % 68 % 42 % 1018,2 hPa 0,0 l/m 8,7 km/h (2 Bft) S-SW 202 0 min 0,0 UV-I 2,5 C 11,4 C 6,3 km/h (2 Bft)
17.02.2014 15:50 10,2 C 13,9 C 8,7 C 11,4 C 11,4 C 1,2 C 58 % 69 % 32 % 1018,2 hPa 0,0 l/m 8,2 km/h (2 Bft) S-SW 202 0 min 0,0 UV-I 2,3 C 11,4 C 14,3 km/h (3 Bft)
17.02.2014 15:55 10,3 C 13,9 C 8,6 C 11,9 C 11,8 C 1,6 C 58 % 69 % 42 % 1018,2 hPa 0,0 l/m 8,0 km/h (2 Bft) W-SW 247 0 min 0,0 UV-I 2,4 C 11,8 C 5,3 km/h (1 Bft)
17.02.2014 16:00 10,5 C 13,9 C 8,8 C 12,2 C 12,1 C 1,7 C 56 % 68 % 45 % 1018,2 hPa 0,0 l/m 8,7 km/h (2 Bft) S 180 0 min 0,0 UV-I 2,1 C 12,1 C 7,7 km/h (2 Bft)
17.02.2014 16:05 10,3 C 13,9 C 8,9 C 12,2 C 11,9 C 1,9 C 56 % 67 % 50 % 1018,2 hPa 0,0 l/m 8,7 km/h (2 Bft) S 180 5 min 0,0 UV-I 1,9 C 11,9 C 15,1 km/h (3 Bft)
17.02.2014 16:10 10,3 C 13,9 C 8,7 C 11,8 C 11,4 C 1,5 C 57 % 67 % 39 % 1018,4 hPa 0,0 l/m 9,0 km/h (2 Bft) S-SO 157 0 min 0,0 UV-I 2,2 C 11,4 C 8,7 km/h (2 Bft)
17.02.2014 16:15 10,3 C 13,9 C 8,7 C 12,1 C 12,1 C 1,8 C 57 % 67 % 47 % 1018,4 hPa 0,0 l/m 6,8 km/h (2 Bft) SW 225 5 min 0,0 UV-I 2,2 C 12,1 C 2,1 km/h (1 Bft)
17.02.2014 16:20 10,2 C 13,9 C 8,5 C 12,4 C 12,4 C 2,2 C 57 % 67 % 58 % 1018,4 hPa 0,0 l/m 4,8 km/h (1 Bft) SW 225 5 min 0,0 UV-I 2,1 C 12,4 C 5,0 km/h (1 Bft)
17.02.2014 16:25 10,1 C 13,9 C 8,6 C 11,8 C 11,8 C 1,7 C 57 % 67 % 45 % 1018,4 hPa 0,0 l/m 5,6 km/h (1 Bft) SW 225 5 min 0,0 UV-I 2,0 C 11,8 C 8,7 km/h (2 Bft)
17.02.2014 16:30 10,1 C 14,0 C 8,4 C 11,6 C 11,6 C 1,5 C 57 % 67 % 39 % 1018,4 hPa 0,0 l/m 6,8 km/h (2 Bft) SW 225 5 min 0,0 UV-I 2,0 C 11,6 C 10,1 km/h (2 Bft)
17.02.2014 16:35 10,3 C 14,0 C 8,4 C 11,6 C 11,6 C 1,3 C 57 % 68 % 34 % 1018,4 hPa 0,0 l/m 6,9 km/h (2 Bft) S 180 5 min 0,0 UV-I 2,2 C 11,6 C 9,7 km/h (2 Bft)
17.02.2014 16:40 10,1 C 14,0 C 8,5 C 11,7 C 11,7 C 1,6 C 57 % 68 % 42 % 1018,4 hPa 0,0 l/m 7,1 km/h (2 Bft) S-SW 202 5 min 0,0 UV-I 2,0 C 11,7 C 7,7 km/h (2 Bft)
17.02.2014 16:45 10,1 C 14,0 C 8,5 C 11,6 C 11,6 C 1,5 C 57 % 68 % 39 % 1018,4 hPa 0,0 l/m 6,6 km/h (2 Bft) S-SW 202 5 min 0,0 UV-I 2,0 C 11,6 C 8,0 km/h (2 Bft)
17.02.2014 16:50 10,1 C 14,0 C 8,7 C 11,5 C 11,5 C 1,4 C 57 % 68 % 37 % 1018,4 hPa 0,0 l/m 6,4 km/h (2 Bft) S 180 5 min 0,0 UV-I 2,0 C 11,5 C 7,2 km/h (2 Bft)
17.02.2014 16:55 10,0 C 14,0 C 8,5 C 11,3 C 11,3 C 1,3 C 58 % 68 % 34 % 1018,4 hPa 0,0 l/m 6,6 km/h (2 Bft) S-SW 202 5 min 0,0 UV-I 2,1 C 11,3 C 9,8 km/h (2 Bft)
17.02.2014 17:00 9,9 C 14,0 C 8,3 C 11,0 C 11,0 C 1,1 C 58 % 68 % 29 % 1018,4 hPa 0,0 l/m 5,5 km/h (1 Bft) S 180 5 min 0,0 UV-I 2,0 C 11,0 C 5,5 km/h (1 Bft)
17.02.2014 17:05 9,7 C 14,0 C 8,1 C 11,0 C 11,0 C 1,3 C 59 % 68 % 34 % 1018,4 hPa 0,0 l/m 4,5 km/h (1 Bft) S-SO 157 5 min 0,0 UV-I 2,1 C 11,0 C 2,6 km/h (1 Bft)
17.02.2014 17:10 9,5 C 14,0 C 7,9 C 10,5 C 10,5 C 1,0 C 60 % 69 % 26 % 1018,7 hPa 0,0 l/m 3,4 km/h (1 Bft) SW 225 5 min 0,0 UV-I 2,1 C 10,5 C 7,4 km/h (2 Bft)
17.02.2014 17:15 9,5 C 14,0 C 7,9 C 10,0 C 10,0 C 0,5 C 60 % 70 % 13 % 1018,7 hPa 0,0 l/m 3,7 km/h (1 Bft) SW 225 5 min 0,0 UV-I 2,1 C 10,0 C 4,3 km/h (1 Bft)
17.02.2014 17:20 9,2 C 14,0 C 7,6 C 9,3 C 9,3 C 0,1 C 60 % 70 % 0 % 1018,7 hPa 0,0 l/m 3,9 km/h (1 Bft) W-SW 247 0 min 0,0 UV-I 1,8 C 9,3 C 3,2 km/h (1 Bft)
17.02.2014 17:25 9,1 C 14,0 C 7,3 C 9,0 C 8,7 C 0,0 C 61 % 70 % 0 % 1018,7 hPa 0,0 l/m 3,1 km/h (1 Bft) SW 225 0 min 0,0 UV-I 2,0 C 8,7 C 1,9 km/h (1 Bft)
17.02.2014 17:30 8,8 C 14,0 C 6,9 C 8,5 C 7,9 C 0,0 C 61 % 71 % 0 % 1018,9 hPa 0,0 l/m 1,0 km/h (0 Bft) S 180 0 min 0,0 UV-I 1,7 C 7,9 C 0,0 km/h (0 Bft)
17.02.2014 17:35 8,7 C 14,1 C 6,7 C 8,2 C 7,3 C 0,0 C 62 % 71 % 0 % 1018,9 hPa 0,0 l/m 0,3 km/h (0 Bft) N 360 0 min 0,0 UV-I 1,8 C 7,3 C 0,0 km/h (0 Bft)
17.02.2014 17:40 8,3 C 14,1 C 6,3 C 7,8 C 6,7 C 0,0 C 62 % 72 % 0 % 1018,9 hPa 0,0 l/m 0,0 km/h (0 Bft) SO 135 0 min 0,0 UV-I 1,5 C 6,7 C 0,0 km/h (0 Bft)
17.02.2014 17:45 8,1 C 14,1 C 6,0 C 7,5 C 6,3 C 0,0 C 62 % 73 % 0 % 1018,9 hPa 0,0 l/m 0,0 km/h (0 Bft) W-SW 247 0 min 0,0 UV-I 1,3 C 6,3 C 0,0 km/h (0 Bft)
17.02.2014 17:50 7,9 C 14,1 C 5,6 C 7,2 C 5,8 C 0,0 C 63 % 73 % 0 % 1018,8 hPa 0,0 l/m 0,0 km/h (0 Bft) S 180 0 min 0,0 UV-I 1,3 C 5,8 C 0,0 km/h (0 Bft)
17.02.2014 17:55 7,5 C 14,1 C 5,5 C 6,8 C 5,4 C 0,0 C 64 % 74 % 0 % 1018,8 hPa 0,0 l/m 0,0 km/h (0 Bft) SW 225 0 min 0,0 UV-I 1,1 C 5,4 C 0,0 km/h (0 Bft)
17.02.2014 18:00 7,1 C 14,1 C 5,1 C 6,3 C 4,6 C 0,0 C 64 % 75 % 0 % 1018,8 hPa 0,0 l/m 0,0 km/h (0 Bft) SW 225 0 min 0,0 UV-I 0,8 C 4,6 C 0,0 km/h (0 Bft)
17.02.2014 18:05 6,8 C 14,1 C 4,8 C 5,9 C 4,2 C 0,0 C 64 % 76 % 0 % 1018,8 hPa 0,0 l/m 0,0 km/h (0 Bft) SW 225 0 min 0,0 UV-I 0,5 C 4,2 C 0,0 km/h (0 Bft)
17.02.2014 18:10 6,4 C 14,1 C 4,4 C 5,5 C 3,7 C 0,0 C 66 % 77 % 0 % 1018,7 hPa 0,0 l/m 0,0 km/h (0 Bft) SW 225 0 min 0,0 UV-I 0,5 C 3,7 C 0,0 km/h (0 Bft)
17.02.2014 18:15 6,2 C 14,1 C 4,3 C 5,3 C 3,4 C 0,0 C 67 % 77 % 0 % 1018,7 hPa 0,0 l/m 0,0 km/h (0 Bft) S-SW 202 0 min 0,0 UV-I 0,5 C 3,4 C 0,0 km/h (0 Bft)
17.02.2014 18:20 5,9 C 14,1 C 4,0 C 5,0 C 3,1 C 0,0 C 68 % 78 % 0 % 1018,7 hPa 0,0 l/m 0,0 km/h (0 Bft) W-SW 247 0 min 0,0 UV-I 0,5 C 3,1 C 0,0 km/h (0 Bft)
17.02.2014 18:25 5,6 C 14,2 C 4,0 C 4,7 C 3,0 C 0,0 C 69 % 78 % 0 % 1018,7 hPa 0,0 l/m 0,0 km/h (0 Bft) W-SW 247 0 min 0,0 UV-I 0,4 C 3,0 C 0,0 km/h (0 Bft)
17.02.2014 18:30 5,5 C 14,2 C 3,7 C 4,6 C 2,8 C 0,0 C 69 % 79 % 0 % 1019,2 hPa 0,0 l/m 0,0 km/h (0 Bft) W-SW 247 0 min 0,0 UV-I 0,3 C 2,8 C 0,0 km/h (0 Bft)
17.02.2014 18:35 5,3 C 14,2 C 3,6 C 4,5 C 2,8 C 0,0 C 70 % 79 % 0 % 1019,2 hPa 0,0 l/m 0,0 km/h (0 Bft) W-SW 247 0 min 0,0 UV-I 0,3 C 2,8 C 0,0 km/h (0 Bft)
17.02.2014 18:40 4,9 C 14,2 C 3,2 C 4,1 C 2,5 C 0,0 C 71 % 79 % 0 % 1019,2 hPa 0,0 l/m 0,0 km/h (0 Bft) W-SW 247 0 min 0,0 UV-I 0,1 C 2,5 C 0,0 km/h (0 Bft)
17.02.2014 18:45 4,7 C 14,2 C 3,2 C 3,9 C 2,3 C 0,0 C 71 % 80 % 0 % 1019,2 hPa 0,0 l/m 0,0 km/h (0 Bft) S-SO 157 0 min 0,0 UV-I -0,1 C 2,3 C 0,0 km/h (0 Bft)
17.02.2014 18:50 4,4 C 14,2 C 2,9 C 3,6 C 2,0 C 0,0 C 72 % 80 % 0 % 1019,2 hPa 0,0 l/m 0,0 km/h (0 Bft) SW 225 0 min 0,0 UV-I -0,2 C 2,0 C 0,0 km/h (0 Bft)
17.02.2014 18:55 4,3 C 14,3 C 2,9 C 3,5 C 1,9 C 0,0 C 72 % 81 % 0 % 1019,2 hPa 0,0 l/m 0,0 km/h (0 Bft) S 180 0 min 0,0 UV-I -0,3 C 1,9 C 0,0 km/h (0 Bft)
17.02.2014 19:00 4,0 C 14,3 C 2,8 C 3,3 C 1,8 C 0,0 C 74 % 81 % 0 % 1019,2 hPa 0,0 l/m 0,0 km/h (0 Bft) SW 225 0 min 0,0 UV-I -0,2 C 1,8 C 0,0 km/h (0 Bft)
17.02.2014 19:05 3,9 C 14,3 C 2,7 C 3,1 C 1,6 C 0,0 C 74 % 81 % 0 % 1019,2 hPa 0,0 l/m 0,0 km/h (0 Bft) SW 225 0 min 0,0 UV-I -0,3 C 1,6 C 0,0 km/h (0 Bft)
17.02.2014 19:10 3,6 C 14,3 C 2,4 C 2,9 C 1,6 C 0,0 C 75 % 82 % 0 % 1019,8 hPa 0,0 l/m 0,0 km/h (0 Bft) N-NO 22 0 min 0,0 UV-I -0,4 C 1,6 C 0,0 km/h (0 Bft)
17.02.2014 19:15 3,6 C 14,3 C 2,4 C 2,9 C 1,6 C 0,0 C 75 % 82 % 0 % 1019,8 hPa 0,0 l/m 0,0 km/h (0 Bft) N-NO 22 0 min 0,0 UV-I -0,4 C 1,6 C 0,0 km/h (0 Bft)
17.02.2014 19:20 3,3 C 14,4 C 2,3 C 2,7 C 1,5 C 0,0 C 76 % 82 % 0 % 1019,8 hPa 0,7 l/m 0,0 km/h (0 Bft) N-NO 22 0 min 0,0 UV-I -0,5 C 1,5 C 0,0 km/h (0 Bft)
17.02.2014 19:25 3,2 C 14,3 C 2,3 C 2,6 C 1,5 C 0,0 C 76 % 83 % 0 % 1019,8 hPa 0,0 l/m 0,0 km/h (0 Bft) N-NO 22 0 min 0,0 UV-I -0,6 C 1,5 C 0,0 km/h (0 Bft)
17.02.2014 19:30 3,1 C 14,3 C 2,0 C 2,4 C 1,0 C 0,0 C 77 % 83 % 0 % 1019,3 hPa 0,0 l/m 0,0 km/h (0 Bft) N-NO 22 0 min 0,0 UV-I -0,5 C 1,0 C 0,0 km/h (0 Bft)
17.02.2014 19:35 2,8 C 14,4 C 2,0 C 2,2 C 0,9 C 0,0 C 77 % 83 % 0 % 1019,3 hPa 0,0 l/m 0,0 km/h (0 Bft) N-NO 22 0 min 0,0 UV-I -0,8 C 0,9 C 0,0 km/h (0 Bft)
17.02.2014 19:40 2,7 C 14,4 C 1,7 C 2,1 C 0,8 C 0,0 C 78 % 83 % 0 % 1019,3 hPa 0,0 l/m 0,0 km/h (0 Bft) N-NO 22 0 min 0,0 UV-I -0,7 C 0,8 C 0,0 km/h (0 Bft)
17.02.2014 19:45 2,7 C 14,4 C 1,7 C 2,0 C 0,7 C 0,0 C 78 % 83 % 0 % 1019,3 hPa 0,0 l/m 0,0 km/h (0 Bft) W-SW 247 0 min 0,0 UV-I -0,7 C 0,7 C 0,0 km/h (0 Bft)
17.02.2014 19:50 2,5 C 14,4 C 1,7 C 1,8 C 0,4 C 0,0 C 79 % 84 % 0 % 1019,5 hPa 0,0 l/m 0,0 km/h (0 Bft) NW 315 0 min 0,0 UV-I -0,8 C 0,4 C 0,0 km/h (0 Bft)
17.02.2014 19:55 2,5 C 14,4 C 1,5 C 1,8 C 0,4 C 0,0 C 79 % 83 % 0 % 1019,5 hPa 0,0 l/m 0,0 km/h (0 Bft) NO 45 0 min 0,0 UV-I -0,8 C 0,4 C 0,0 km/h (0 Bft)
17.02.2014 20:00 2,2 C 14,4 C 1,5 C 1,6 C 0,4 C 0,0 C 80 % 84 % 0 % 1019,5 hPa 0,0 l/m 0,0 km/h (0 Bft) NO 45 0 min 0,0 UV-I -0,9 C 0,4 C 0,0 km/h (0 Bft)
17.02.2014 20:05 2,1 C 14,4 C 1,5 C 1,5 C 0,3 C 0,0 C 80 % 84 % 0 % 1019,5 hPa 0,0 l/m 0,0 km/h (0 Bft) NW 315 0 min 0,0 UV-I -1,0 C 0,3 C 0,0 km/h (0 Bft)
17.02.2014 20:10 2,0 C 14,4 C 1,5 C 1,4 C 0,2 C 0,0 C 81 % 84 % 0 % 1019,5 hPa 0,0 l/m 0,0 km/h (0 Bft) NW 315 0 min 0,0 UV-I -0,9 C 0,2 C 0,0 km/h (0 Bft)
17.02.2014 20:15 2,0 C 14,4 C 1,5 C 1,4 C 0,1 C 0,0 C 81 % 85 % 0 % 1019,5 hPa 0,0 l/m 0,0 km/h (0 Bft) SW 225 0 min 0,0 UV-I -0,9 C 0,1 C 0,0 km/h (0 Bft)
17.02.2014 20:20 1,9 C 14,4 C 1,3 C 1,2 C -0,2 C 0,0 C 81 % 85 % 0 % 1019,5 hPa 0,0 l/m 0,0 km/h (0 Bft) SW 225 0 min 0,0 UV-I -1,0 C -0,2 C 0,0 km/h (0 Bft)
17.02.2014 20:25 1,7 C 14,4 C 1,1 C 1,0 C -0,4 C 0,0 C 81 % 85 % 0 % 1019,5 hPa 0,0 l/m 0,0 km/h (0 Bft) SW 225 0 min 0,0 UV-I -1,2 C -0,4 C 0,0 km/h (0 Bft)
17.02.2014 20:30 1,6 C 14,4 C 0,9 C 0,9 C -0,5 C 0,0 C 81 % 85 % 0 % 1020,2 hPa 0,0 l/m 0,0 km/h (0 Bft) SW 225 0 min 0,0 UV-I -1,3 C -0,5 C 0,0 km/h (0 Bft)
17.02.2014 20:35 1,5 C 14,4 C 0,8 C 0,8 C -0,5 C 0,0 C 81 % 85 % 0 % 1020,2 hPa 0,0 l/m 0,0 km/h (0 Bft) SW 225 0 min 0,0 UV-I -1,4 C -0,5 C 0,0 km/h (0 Bft)
17.02.2014 20:40 1,3 C 14,4 C 0,8 C 0,6 C -0,7 C 0,0 C 82 % 85 % 0 % 1020,2 hPa 0,0 l/m 0,0 km/h (0 Bft) SW 225 0 min 0,0 UV-I -1,4 C -0,7 C 0,0 km/h (0 Bft)
17.02.2014 20:45 1,3 C 14,4 C 0,6 C 0,6 C -0,8 C 0,0 C 82 % 85 % 0 % 1020,2 hPa 0,0 l/m 0,0 km/h (0 Bft) SW 225 0 min 0,0 UV-I -1,4 C -0,8 C 0,0 km/h (0 Bft)
17.02.2014 20:50 1,1 C 14,5 C 0,4 C 0,4 C -0,9 C 0,0 C 82 % 85 % 0 % 1020,0 hPa 0,0 l/m 0,0 km/h (0 Bft) SW 225 0 min 0,0 UV-I -1,6 C -0,9 C 0,0 km/h (0 Bft)
17.02.2014 20:55 1,1 C 14,5 C 0,4 C 0,4 C -0,9 C 0,0 C 83 % 85 % 0 % 1020,0 hPa 0,0 l/m 0,0 km/h (0 Bft) SW 225 0 min 0,0 UV-I -1,5 C -0,9 C 0,0 km/h (0 Bft)
17.02.2014 21:00 0,8 C 14,5 C 0,4 C 0,2 C -1,0 C 0,0 C 83 % 85 % 0 % 1020,0 hPa 0,0 l/m 0,0 km/h (0 Bft) SW 225 0 min 0,0 UV-I -1,8 C -1,0 C 0,0 km/h (0 Bft)
17.02.2014 21:05 0,9 C 14,4 C 0,2 C 0,3 C -1,0 C 0,0 C 83 % 85 % 0 % 1020,0 hPa 0,0 l/m 0,0 km/h (0 Bft) SW 225 0 min 0,0 UV-I -1,7 C -1,0 C 0,0 km/h (0 Bft)
17.02.2014 21:10 0,7 C 14,4 C 0,3 C 0,1 C -1,2 C 0,0 C 83 % 86 % 0 % 1020,3 hPa 0,0 l/m 0,0 km/h (0 Bft) SW 225 0 min 0,0 UV-I -1,8 C -1,2 C 0,0 km/h (0 Bft)
17.02.2014 21:15 0,7 C 14,4 C 0,3 C 0,0 C -1,3 C 0,0 C 83 % 86 % 0 % 1020,3 hPa 0,0 l/m 0,0 km/h (0 Bft) SW 225 0 min 0,0 UV-I -1,8 C -1,3 C 0,0 km/h (0 Bft)
17.02.2014 21:20 0,5 C 14,4 C 0,3 C -0,2 C -1,5 C 0,0 C 84 % 86 % 0 % 1020,3 hPa 0,0 l/m 0,0 km/h (0 Bft) SW 225 0 min 0,0 UV-I -1,9 C -1,5 C 0,0 km/h (0 Bft)
17.02.2014 21:25 0,5 C 14,4 C 0,1 C -0,2 C -1,6 C 0,0 C 84 % 86 % 0 % 1020,3 hPa 0,0 l/m 0,0 km/h (0 Bft) SW 225 0 min 0,0 UV-I -1,9 C -1,6 C 0,0 km/h (0 Bft)
17.02.2014 21:30 0,3 C 14,4 C 0,1 C -0,3 C -1,6 C 0,0 C 84 % 86 % 0 % 1020,2 hPa 0,0 l/m 0,0 km/h (0 Bft) NW 315 0 min 0,0 UV-I -2,1 C -1,6 C 0,0 km/h (0 Bft)
17.02.2014 21:35 0,2 C 14,4 C -0,1 C -0,4 C -1,6 C 0,0 C 84 % 86 % 0 % 1020,2 hPa 0,0 l/m 0,0 km/h (0 Bft) NW 315 0 min 0,0 UV-I -2,2 C -1,6 C 0,0 km/h (0 Bft)
17.02.2014 21:40 0,1 C 14,4 C -0,1 C -0,4 C -1,5 C 0,0 C 84 % 86 % 0 % 1020,2 hPa 0,0 l/m 0,0 km/h (0 Bft) NW 315 0 min 0,0 UV-I -2,3 C -1,5 C 0,0 km/h (0 Bft)
17.02.2014 21:45 0,0 C 14,3 C -0,1 C -0,5 C -1,5 C 0,0 C 84 % 86 % 0 % 1020,2 hPa 0,0 l/m 0,0 km/h (0 Bft) NW 315 0 min 0,0 UV-I -2,4 C -1,5 C 0,0 km/h (0 Bft)
17.02.2014 21:50 -0,1 C 14,3 C -0,3 C -0,6 C -1,7 C 0,0 C 84 % 86 % 0 % 1020,2 hPa 0,0 l/m 0,0 km/h (0 Bft) NW 315 0 min 0,0 UV-I -2,5 C -1,7 C 0,0 km/h (0 Bft)
17.02.2014 21:55 -0,1 C 14,3 C -0,3 C -0,7 C -1,8 C 0,0 C 84 % 86 % 0 % 1020,2 hPa 0,0 l/m 0,0 km/h (0 Bft) NW 315 0 min 0,0 UV-I -2,5 C -1,8 C 0,0 km/h (0 Bft)
17.02.2014 22:00 -0,3 C 14,3 C -0,1 C -0,8 C -1,8 C 0,0 C 85 % 87 % 0 % 1020,2 hPa 0,0 l/m 0,0 km/h (0 Bft) W-NW 292 0 min 0,0 UV-I -2,5 C -1,8 C 0,0 km/h (0 Bft)
17.02.2014 22:05 -0,4 C 14,3 C -0,3 C -0,9 C -1,8 C 0,0 C 85 % 86 % 0 % 1020,2 hPa 0,0 l/m 0,0 km/h (0 Bft) W-NW 292 0 min 0,0 UV-I -2,6 C -1,8 C 0,0 km/h (0 Bft)
17.02.2014 22:10 -0,5 C 14,3 C -0,4 C -1,0 C -2,1 C 0,0 C 85 % 86 % 0 % 1020,4 hPa 0,0 l/m 0,0 km/h (0 Bft) W-NW 292 0 min 0,0 UV-I -2,7 C -2,1 C 0,0 km/h (0 Bft)
17.02.2014 22:15 -0,5 C 14,3 C -0,5 C -1,0 C -2,1 C 0,0 C 85 % 86 % 0 % 1020,4 hPa 0,0 l/m 0,0 km/h (0 Bft) W-NW 292 0 min 0,0 UV-I -2,7 C -2,1 C 0,0 km/h (0 Bft)
17.02.2014 22:20 -0,7 C 14,2 C -0,5 C -1,2 C -2,2 C 0,0 C 85 % 87 % 0 % 1020,4 hPa 0,0 l/m 0,0 km/h (0 Bft) W-NW 292 0 min 0,0 UV-I -2,9 C -2,2 C 0,0 km/h (0 Bft)
17.02.2014 22:25 -0,8 C 14,2 C -0,5 C -1,3 C -2,2 C 0,0 C 85 % 87 % 0 % 1020,4 hPa 0,0 l/m 0,0 km/h (0 Bft) W-NW 292 0 min 0,0 UV-I -3,0 C -2,2 C 0,0 km/h (0 Bft)
17.02.2014 22:30 -0,8 C 14,2 C -0,6 C -1,3 C -2,3 C 0,0 C 85 % 87 % 0 % 1020,4 hPa 0,0 l/m 0,0 km/h (0 Bft) W-NW 292 0 min 0,0 UV-I -3,0 C -2,3 C 0,0 km/h (0 Bft)
17.02.2014 22:35 -0,9 C 14,2 C -0,7 C -1,4 C -2,5 C 0,0 C 85 % 87 % 0 % 1020,4 hPa 0,0 l/m 0,0 km/h (0 Bft) W-NW 292 0 min 0,0 UV-I -3,1 C -2,5 C 0,0 km/h (0 Bft)
17.02.2014 22:40 -0,9 C 14,2 C -0,8 C -1,4 C -2,5 C 0,0 C 85 % 87 % 0 % 1020,4 hPa 0,0 l/m 0,0 km/h (0 Bft) W-NW 292 0 min 0,0 UV-I -3,1 C -2,5 C 0,0 km/h (0 Bft)
17.02.2014 22:45 -1,1 C 14,2 C -0,9 C -1,6 C -2,5 C 0,0 C 85 % 87 % 0 % 1020,4 hPa 0,0 l/m 0,0 km/h (0 Bft) NW 315 0 min 0,0 UV-I -3,3 C -2,5 C 0,0 km/h (0 Bft)
17.02.2014 22:50 -1,2 C 14,2 C -1,0 C -1,6 C -2,3 C 0,0 C 86 % 87 % 0 % 1020,6 hPa 0,0 l/m 0,0 km/h (0 Bft) NW 315 0 min 0,0 UV-I -3,2 C -2,3 C 0,0 km/h (0 Bft)
17.02.2014 22:55 -1,3 C 14,1 C -0,9 C -1,6 C -2,3 C 0,0 C 86 % 87 % 0 % 1020,6 hPa 0,0 l/m 0,0 km/h (0 Bft) NW 315 0 min 0,0 UV-I -3,3 C -2,3 C 0,0 km/h (0 Bft)
17.02.2014 23:00 -1,3 C 14,1 C -0,9 C -1,7 C -2,5 C 0,0 C 86 % 87 % 0 % 1020,6 hPa 0,0 l/m 0,0 km/h (0 Bft) W-NW 292 0 min 0,0 UV-I -3,3 C -2,5 C 0,0 km/h (0 Bft)
17.02.2014 23:05 -1,3 C 14,1 C -0,9 C -1,7 C -2,5 C 0,0 C 86 % 87 % 0 % 1020,6 hPa 0,0 l/m 0,0 km/h (0 Bft) W-NW 292 0 min 0,0 UV-I -3,3 C -2,5 C 0,0 km/h (0 Bft)
17.02.2014 23:10 -1,5 C 14,1 C -0,9 C -1,9 C -2,7 C 0,0 C 86 % 87 % 0 % 1020,6 hPa 0,0 l/m 0,0 km/h (0 Bft) W-NW 292 0 min 0,0 UV-I -3,5 C -2,7 C 0,0 km/h (0 Bft)
17.02.2014 23:15 -1,5 C 14,1 C -0,9 C -1,9 C -2,7 C 0,0 C 86 % 87 % 0 % 1020,6 hPa 0,0 l/m 0,0 km/h (0 Bft) W-NW 292 0 min 0,0 UV-I -3,5 C -2,7 C 0,0 km/h (0 Bft)
17.02.2014 23:20 -1,6 C 14,1 C -0,9 C -2,0 C -2,7 C 0,0 C 86 % 87 % 0 % 1020,6 hPa 0,0 l/m 0,0 km/h (0 Bft) W-NW 292 0 min 0,0 UV-I -3,6 C -2,7 C 0,0 km/h (0 Bft)
17.02.2014 23:25 -1,6 C 14,1 C -0,9 C -2,0 C -2,8 C 0,0 C 86 % 87 % 0 % 1020,6 hPa 0,0 l/m 0,0 km/h (0 Bft) W-NW 292 0 min 0,0 UV-I -3,6 C -2,8 C 0,0 km/h (0 Bft)
17.02.2014 23:30 -1,7 C 14,0 C -1,2 C -2,0 C -2,7 C 0,0 C 86 % 87 % 0 % 1020,4 hPa 0,0 l/m 0,0 km/h (0 Bft) NW 315 0 min 0,0 UV-I -3,7 C -2,7 C 0,0 km/h (0 Bft)
17.02.2014 23:35 -1,7 C 14,0 C -1,3 C -2,1 C -2,8 C 0,0 C 86 % 87 % 0 % 1020,4 hPa 0,0 l/m 0,0 km/h (0 Bft) NW 315 0 min 0,0 UV-I -3,7 C -2,8 C 0,0 km/h (0 Bft)
17.02.2014 23:40 -1,7 C 14,0 C -1,1 C -2,1 C -3,0 C 0,0 C 86 % 87 % 0 % 1020,4 hPa 0,0 l/m 0,0 km/h (0 Bft) SW 225 0 min 0,0 UV-I -3,7 C -3,0 C 0,0 km/h (0 Bft)
17.02.2014 23:45 -1,9 C 14,0 C -1,3 C -2,3 C -3,0 C 0,0 C 86 % 87 % 0 % 1020,4 hPa 0,0 l/m 0,0 km/h (0 Bft) SW 225 0 min 0,0 UV-I -3,9 C -3,0 C 0,0 km/h (0 Bft)
17.02.2014 23:50 -2,0 C 14,0 C -1,3 C -2,4 C -3,1 C 0,0 C 86 % 88 % 0 % 1020,7 hPa 0,0 l/m 0,0 km/h (0 Bft) SW 225 0 min 0,0 UV-I -4,0 C -3,1 C 0,0 km/h (0 Bft)
17.02.2014 23:55 -2,1 C 14,0 C -1,3 C -2,4 C -3,1 C 0,0 C 86 % 88 % 0 % 1020,7 hPa 0,0 l/m 0,0 km/h (0 Bft) S-SW 202 0 min 0,0 UV-I -4,1 C -3,1 C 0,0 km/h (0 Bft)
_ Min-Zeit 23:55 11:00 23:35 23:50 23:50 00:00 16:00 15:05 00:00 04:10 - 07:10 - - - 00:00 23:55 23:50 00:25
Minimum _ -2,1 C 13,2 C -1,3 C -2,4 C -3,1 C 0,0 C 56 % 66 % 0 % 1015,5 hPa - 0,0 km/h (0 Bft) - - - 0,0 UV-I -4,1 C -3,1 C 0,0 km/h (0 Bft)
_ Max-Zeit 15:35 20:50 14:10 15:10 15:05 12:15 03:20 07:30 12:15 23:50 19:20 14:35 - - 08:35 00:00 11:20 15:05 14:35
Maximum _ 10,6 C 14,5 C 9,7 C 12,9 C 12,8 C 3,4 C 87 % 92 % 89 % 1020,7 hPa 0,7 l/m 10,5 km/h
S-SO (2 Bft)
- - 5 min 0,0 UV-I 3,9 C 12,8 C 21,2 km/h
S-SO (4 Bft)
Durchschnitt _ 4,6 C 13,9 C 4,2 C 5,0 C 4,4 C 0,7 C 78 % 84 % 17 % 1017,8 hPa #0,7 l/m 2,8 km/h (1 Bft) S - #1:50 h 0,0 UV-I 0,8 C 4,4 C 3,9 km/h (1 Bft)
2014 www.wetterstation-wechselburg.de